This is the latest recevied weather packets stored in our database for station/object N8TWM-13. If no packets are shown the sender has not sent any weather packets the latest 10 day(s).
| Time | Temp. | Humidity | Pressure | Rain* | Wind** | Luminosity | Snow |
|---|---|---|---|---|---|---|---|
| 1777735309 | 3.89° C | 80% | 1017.6 hPa | 0 mm | - | 238 W/m² | - |
| 1777735007 | 3.89° C | 81% | 1017.7 hPa | 0 mm | - | 121 W/m² | - |
| 1777734704 | 3.89° C | 81% | 1017.6 hPa | 0 mm | - | 128 W/m² | - |
| 1777734401 | 3.89° C | 81% | 1017.7 hPa | 0 mm | - | 160 W/m² | - |
| 1777734097 | 3.89° C | 82% | 1017.6 hPa | 0 mm | - | 161 W/m² | - |
| 1777733794 | 4.44° C | 83% | 1017.6 hPa | 0 mm | - | 165 W/m² | - |
| 1777733490 | 3.89° C | 84% | 1017.6 hPa | 0 mm | - | 187 W/m² | - |
| 1777733186 | 3.89° C | 84% | 1017.5 hPa | 0 mm | - | 114 W/m² | - |
| 1777732884 | 3.89° C | 84% | 1017.5 hPa | 0 mm | - | 133 W/m² | - |
| 1777732580 | 3.33° C | 84% | 1017.4 hPa | 0 mm | - | 181 W/m² | - |
| 1777732278 | 3.33° C | 86% | 1017.7 hPa | 0 mm | - | 154 W/m² | - |
| 1777731975 | 3.33° C | 87% | 1017.4 hPa | 0 mm | - | 102 W/m² | - |
| 1777731671 | 3.33° C | 88% | 1017.2 hPa | 0 mm | - | 108 W/m² | - |
| 1777731369 | 3.33° C | 88% | 1017.4 hPa | 0 mm | - | 127 W/m² | - |
| 1777731067 | 3.33° C | 88% | 1017.3 hPa | 0 mm | - | 45 W/m² | - |
| 1777730765 | 3.33° C | 88% | 1017.3 hPa | 0 mm | - | 39 W/m² | - |
| 1777730461 | 3.33° C | 89% | 1017.4 hPa | 0 mm | - | 73 W/m² | - |
| 1777730156 | 2.78° C | 89% | 1016.9 hPa | 0 mm | - | 62 W/m² | - |
| 1777729854 | 3.33° C | 90% | 1017 hPa | 0 mm | - | 101 W/m² | - |
| 1777729550 | 2.78° C | 90% | 1017.1 hPa | 0 mm | - | 72 W/m² | - |
| 1777729247 | 2.78° C | 90% | 1017.1 hPa | 0 mm | - | 82 W/m² | - |
| 1777728944 | 2.78° C | 90% | 1017 hPa | 0 mm | - | 66 W/m² | - |
| 1777728641 | 2.78° C | 91% | 1017 hPa | 0 mm | - | 38 W/m² | - |
| 1777728338 | 2.78° C | 91% | 1016.9 hPa | 0 mm | - | 44 W/m² | - |
| 1777728034 | 2.78° C | 91% | 1016.6 hPa | 0 mm | - | 40 W/m² | - |
* Rain latest hour (hover to see other rain measurements)
** Current wind speed in m/s (hover to see current wind gust speed)